{"data":{"norad_id":66752,"intl_designator":"2025-276CQ","name":"ICEYE-X59","alt_names":[],"object_type":"PAYLOAD","status":"ACTIVE","operator":null,"country":"GREC","launch_date":"2025-11-28","launch_site_code":"AFWTR","launch_vehicle":null,"mission":null,"orbit_class":"UNKNOWN","rcs_meters":null,"size_class":null,"mass_kg":null,"dimensions":null,"purposes":[],"wikipedia_slug":null,"has_3d_model":false,"image_url":null,"decayed_at":null,"tle_current":{"epoch":"2026-09-20T22:35:10.007520Z","epoch_age_seconds":79443,"freshness":"FRESH","line1":"1 66752U 25276CQ  26263.94108805  .00002745  00000+0  21678-3 0  9996","line2":"2 66752  97.4530 331.2341 0001300  58.3036 301.8315 15.01474076 44635","mean_motion":15.01474076,"eccentricity":0.00013,"inclination_deg":97.453,"raan_deg":331.2341,"arg_perigee_deg":58.3036,"mean_anomaly_deg":301.8315,"bstar":0.00021678,"rev_number":4463,"period_min":95.905751755384,"perigee_km":561.44780212256,"apogee_km":563.25232875957,"semimajor_km":6940.4870654411,"source":"CELESTRAK","updated_at":"2026-09-21T09:00:16.180046Z"}}}